Location: North Evanston
(42.0634°N, 87.6976°W)
Time: 21:21:12
(UTC+00:00)

Transit 2A - Pass Details

Date: 19 May 2026
Orbit: 595 x 948 km, 66.7° (Epoch: 9 June)

Event Time Altitude Azimuth Distance (km) Brightness Sun altitude
Rises 04:57:04 0° 334° (NNW) 3,170 10.4 -27.1°
Reaches altitude 10° 04:59:38 10° 340° (NNW) 2,185 9.3 -27.2°
Enters shadow 05:04:17 44° 51° (NE) 916 6.5 -27.4°
Maximum altitude 05:04:20 44° 53° (NE) 915 - -27.4°
Drops below altitude 10° 05:08:39 10° 126° (SE) 2,000 - -27.5°
Sets 05:10:55 0° 133° (SE) 2,871 - -27.6°
